Temperature
23 24 23 23 24 23 23 23 22 22 22 22 22 22 22 20 19 20 19 19 18 18 17 16 16 16 15 15 15 15 15 15 15 15 15 15 15 15 15 15 15 14 14 14
23 23 23 23 23 23 23 23 22 22 22 22 22 22 22 21 20 20 20 19 19 18 17 16 16 16 15 15 15 15 15 15 14 15 14 14 14 14 14 14 14 14 14 14
23 23 23 23 22 22 23 23 23 22 22 22 22 22 22 22 20 19 19 19 19 18 17 17 16 15 15 15 15 15 15 15 14 14 14 14 14 14 14 14 14 14 14 14
23 23 22 22 22 23 22 22 22 22 22 22 22 22 23 22 21 20 19 19 18 18 17 16 16 16 15 15 15 15 15 15 14 14 14 14 14 14 14 14 14 14 14 14
22 22 22 22 22 22 22 22 22 22 22 22 22 22 23 22 22 22 20 19 18 18 17 16 16 15 15 15 15 15 15 15 14 14 14 14 14 14 14 14 14 14 14 14
22 22 22 22 22 22 21 22 22 22 22 21 22 22 22 22 22 22 21 20 18 18 17 16 16 15 15 15 15 15 15 14 14 14 14 14 14 14 14 14 14 14 14 14
22 22 22 22 22 21 22 22 22 21 21 22 22 21 22 22 22 21 21 20 19 18 17 16 16 15 15 14 14 14 14 14 14 14 14 14 14 14 14 14 13 14 14 14
21 21 22 22 22 22 22 22 22 21 21 22 21 21 22 21 20 20 20 19 18 18 17 16 16 15 15 14 14 14 14 14 14 14 14 14 14 14 14 13 13 13 13 13
22 21 21 21 22 22 22 22 22 22 21 21 22 22 22 21 20 20 19 19 18 17 17 16 15 15 15 15 14 14 14 14 14 14 14 14 14 13 13 13 13 13 13 13
21 21 21 21 21 21 22 22 22 21 20 21 21 21 22 21 20 20 19 19 18 17 16 16 15 15 15 15 14 14 14 14 14 14 14 13 13 13 13 13 13 13 13 13
21 21 21 21 21 21 21 21 21 21 21 21 21 21 21 21 20 20 19 18 17 17 16 16 15 15 14 14 14 14 14 14 14 13 13 13 13 13 13 13 13 13 13 13
20 21 21 21 21 20 21 21 21 21 21 21 21 21 20 20 20 19 18 17 17 16 15 15 14 14 14 14 14 14 14 14 14 13 13 13 13 13 13 13 13 13 13 13
19 20 20 20 20 20 20 20 21 21 21 21 20 21 20 20 19 18 17 17 16 15 15 14 14 14 14 14 14 14 14 14 13 13 13 13 13 13 13 13 13 13 13 13
18 20 20 20 20 20 20 19 19 20 20 20 21 21 20 20 19 18 17 16 16 15 14 14 13 13 13 13 13 13 13 13 13 13 13 13 13 13 13 13 13 12 12 12
19 20 20 20 20 19 19 19 19 19 20 20 20 20 20 20 19 17 16 16 15 14 14 13 13 13 13 13 13 13 13 13 13 13 13 13 13 13 13 13 13 12 12 12
18 19 19 19 18 18 18 18 19 19 19 19 19 19 19 18 17 16 16 15 14 14 13 13 12 12 12 12 12 12 12 12 12 12 12 12 12 12 13 12 12 12 12 12
18 18 18 19 18 18 18 18 18 18 18 18 19 19 18 17 16 15 15 14 14 13 13 13 12 12 12 12 12 12 12 12 12 12 12 12 12 12 12 12 12 12 12 12
17 18 18 18 18 17 18 17 17 17 16 17 17 17 16 16 15 14 14 14 13 13 12 12 12 12 12 12 12 12 11 11 12 12 12 12 12 12 12 12 12 11 11 11
16 17 17 17 17 18 17 16 16 16 16 16 16 16 15 14 15 14 13 13 12 12 12 12 12 12 12 12 12 11 11 11 11 11 11 12 11 11 11 11 11 11 11 11
15 16 17 17 17 17 17 16 15 16 16 15 15 15 14 14 16 16 13 12 11 11 12 12 11 11 11 11 11 11 11 11 11 11 11 11 11 11 11 11 11 11 11 11
15 15 16 16 16 17 15 14 15 15 16 14 14 14 13 14 14 13 12 11 11 11 11 11 11 11 11 11 11 11 10 10 10 11 11 11 11 11 11 11 11 10 10 10
16 15 15 16 16 16 14 14 15 15 14 13 13 13 12 12 12 11 11 11 11 11 11 11 11 10 10 10 10 10 10 10 10 10 10 10 10 10 10 10 10 10 10 10
15 15 15 15 15 14 12 13 13 13 13 12 12 12 11 11 11 11 10 10 10 10 10 10 10 10 10 10 10 9 9 9 9 9 9 10 10 10 10 10 9 9 9 9
14 13 14 14 14 13 12 11 11 11 12 11 11 11 10 10 10 10 10 10 10 10 10 10 10 9 9 9 9 9 9 9 9 9 9 9 9 9 9 9 9 9 9 9
13 12 13 14 13 12 11 11 11 11 11 11 10 10 10 10 10 10 9 9 9 9 9 9 9 9 9 8 8 8 8 8 8 8 8 8 9 9 9 9 9 8 8 8
12 12 13 13 13 13 12 11 10 10 10 10 10 10 9 9 9 9 9 9 9 9 9 9 8 8 8 8 8 8 8 8 8 8 8 8 8 8 8 8 8 8 8 8
Wind_Speed
6 7 7 7 7 4 4 5 5 3 3 5 6 6 5 6 7 7 6 6 5 5 4 3 3 2 2 3 4 5 5 5 5 4 3 3 3 3 2 2 3 3 3 3
7 7 5 5 6 6 6 6 5 3 3 4 5 6 5 6 8 7 7 6 6 5 4 4 3 3 3 3 4 5 5 5 5 4 3 3 3 2 2 2 2 2 2 2
9 4 5 7 7 8 7 6 5 3 3 4 4 5 6 6 6 6 6 6 6 6 6 5 4 4 4 4 4 5 5 5 6 5 4 3 3 2 3 2 2 1 2 2
6 4 7 8 7 7 7 5 5 5 5 4 5 5 5 6 6 6 7 7 6 6 6 5 5 5 5 4 4 5 5 6 6 6 5 5 4 3 3 2 2 2 2 1
6 6 7 7 6 7 4 3 5 6 6 6 6 6 4 5 6 6 7 7 7 6 6 6 6 5 5 4 4 5 5 5 6 6 6 5 4 3 2 2 2 2 2 1
5 4 5 5 4 6 5 5 5 5 6 7 6 7 4 3 5 4 5 6 7 7 6 6 6 5 5 4 4 4 5 5 5 6 6 6 5 4 3 3 3 2 2 1
7 6 5 4 6 7 7 7 5 6 6 5 3 5 4 0 1 3 3 4 6 6 6 6 6 6 6 5 5 5 6 5 6 6 6 6 5 5 4 4 3 3 3 2
8 8 7 6 7 6 9 9 6 5 5 4 4 6 2 1 1 2 2 2 4 6 6 6 6 6 6 6 6 6 6 6 6 6 5 5 5 4 3 4 3 3 3 3
6 6 5 4 4 6 8 8 6 5 5 6 5 4 4 2 1 1 0 1 3 4 5 5 5 6 6 6 7 7 7 6 6 6 6 5 5 5 4 4 4 3 3 3
4 6 6 5 6 4 6 6 6 6 5 6 5 6 4 2 2 1 1 1 2 3 4 5 5 5 5 6 6 6 7 7 6 6 6 5 5 5 5 4 4 4 4 4
6 6 6 7 8 8 7 8 7 6 6 6 5 3 0 1 1 1 1 1 2 2 3 4 5 5 5 5 5 6 6 6 6 6 6 6 6 6 5 5 5 5 4 4
5 5 7 8 4 4 7 9 10 9 8 7 7 3 3 0 0 1 1 1 1 2 2 3 4 5 5 5 5 5 6 6 6 6 6 6 6 6 5 5 5 5 5 5
4 5 7 7 7 7 8 8 10 10 8 9 9 5 3 0 1 1 2 1 1 1 1 2 3 4 4 5 5 5 5 6 6 6 6 6 6 6 6 6 5 5 5 5
4 6 9 8 5 4 7 8 9 11 11 11 12 9 4 3 2 2 2 2 1 1 1 2 2 3 3 4 4 5 5 5 6 6 6 6 6 6 6 5 5 5 5 5
4 7 7 7 6 6 8 9 10 13 14 13 11 10 7 5 3 3 3 2 1 1 1 2 2 2 2 3 3 4 5 5 5 6 6 5 5 5 5 5 4 4 4 5
4 5 5 7 5 6 9 10 10 11 12 13 11 9 4 3 2 2 2 2 2 2 2 2 2 2 2 3 3 3 4 4 5 6 5 4 4 4 4 4 4 4 4 5
5 6 6 7 5 6 10 8 9 8 7 8 10 7 3 3 3 3 2 2 3 2 2 2 2 2 2 2 3 3 4 4 5 5 5 4 4 4 4 4 4 4 4 4
5 6 5 6 5 9 2 1 2 5 5 6 6 5 4 4 3 2 2 2 2 2 2 2 2 2 2 2 2 3 3 4 4 4 4 4 4 4 4 4 4 4 4 4
5 6 5 5 7 7 3 2 3 5 5 4 5 5 3 3 2 1 2 2 2 2 2 2 2 2 2 2 2 3 3 4 4 4 4 4 4 4 4 4 5 4 4 4
3 5 6 6 7 7 2 0 2 4 5 2 3 4 3 3 4 2 2 2 3 2 1 1 1 1 1 1 2 3 3 4 4 5 5 5 4 4 5 4 4 4 3 4
4 5 7 8 8 5 1 1 3 5 1 1 2 3 3 4 3 3 2 2 1 1 1 1 0 0 1 1 2 2 2 3 3 3 3 4 4 4 4 4 3 3 3 3
5 5 6 6 8 5 2 3 4 1 2 1 2 2 3 3 2 2 2 1 1 1 1 1 1 1 1 0 1 2 2 2 2 2 3 3 3 3 3 3 3 4 4 4
5 4 3 4 3 2 2 2 1 2 2 2 2 2 2 2 2 2 1 1 1 1 1 1 1 1 2 2 1 1 1 1 2 2 3 3 3 3 3 3 3 3 4 4
3 2 4 4 4 3 2 2 2 2 2 2 2 2 2 2 2 1 1 0 1 1 2 1 1 1 2 2 2 2 2 1 2 2 2 3 3 3 3 3 3 4 4 4
3 4 4 6 4 3 3 3 3 3 2 2 1 1 1 1 1 1 1 0 0 1 1 1 1 1 2 2 3 3 3 2 2 2 2 3 3 3 3 3 3 4 4 4
4 4 5 5 4 4 4 2 2 2 2 2 1 1 1 1 1 0 0 0 0 1 1 1 2 2 2 3 3 3 3 3 3 3 2 3 3 3 3 3 3 3 4 3
Wind_Direction
180 195 200 200 209 219 208 207 207 197 184 213 225 229 203 187 200 204 199 194 194 193 181 169 169 170 179 185 179 170 171 164 157 152 155 143 143 131 114 98 90 93 95 94
189 206 208 199 196 203 209 212 212 187 179 223 232 239 220 199 204 208 206 203 203 198 184 175 180 178 185 180 186 182 177 175 168 159 157 156 150 148 130 117 107 105 105 103
206 197 183 191 194 208 215 223 221 204 180 205 241 235 206 196 203 211 218 216 208 202 198 189 190 187 189 190 192 190 189 182 178 165 152 142 147 162 152 147 136 120 113 115
210 199 189 199 208 219 223 218 224 215 226 231 237 258 214 206 205 210 214 213 210 204 204 198 195 196 197 199 200 198 192 188 181 175 168 174 185 182 176 167 157 155 140 133
202 193 198 211 214 216 214 191 210 225 241 250 234 255 227 194 219 219 211 210 209 204 203 202 202 202 201 197 199 203 193 186 183 183 181 192 196 190 173 173 171 175 156 161
211 207 216 223 200 196 174 180 190 212 234 246 236 244 252 207 229 224 211 208 207 203 201 201 201 203 201 192 193 201 197 187 184 189 189 195 194 190 179 180 188 194 183 190
206 203 205 203 193 183 202 213 218 219 226 242 192 237 251 52 249 254 236 211 202 197 196 195 194 200 200 196 195 196 196 193 191 194 198 200 201 198 196 192 197 203 204 205
215 208 197 201 214 211 208 220 237 249 251 252 210 236 218 96 312 280 262 217 193 192 196 198 198 200 200 201 199 197 196 195 195 198 202 203 198 203 205 203 201 211 220 216
220 207 178 194 209 214 205 214 243 260 260 259 230 230 227 183 223 236 218 183 187 195 200 204 202 202 202 202 202 199 196 194 195 200 201 202 202 206 210 210 209 212 218 212
239 220 191 180 186 199 226 206 212 233 246 252 245 241 240 205 221 215 220 211 207 201 203 205 202 201 202 203 204 202 201 199 198 203 202 201 208 210 214 213 213 215 211 206
236 226 194 188 207 207 194 203 218 231 247 257 259 242 86 302 295 266 264 246 211 207 209 206 204 205 202 202 202 205 206 203 203 207 208 203 206 210 210 213 216 215 210 204
221 234 220 209 200 228 226 223 220 230 233 241 261 260 102 67 288 296 316 304 259 227 214 205 202 201 200 203 207 209 210 207 207 208 208 209 207 207 209 213 217 215 209 208
198 223 221 207 195 196 211 216 225 236 243 240 247 243 134 155 288 316 315 311 290 223 199 193 193 200 203 205 208 213 213 210 206 204 206 211 210 208 211 215 215 216 215 212
220 232 239 238 237 218 221 218 220 229 239 244 246 258 260 285 285 300 297 287 246 197 184 185 196 206 213 215 214 215 215 209 204 203 204 211 214 211 211 216 216 218 217 215
222 239 239 249 251 235 240 235 227 232 242 252 258 259 271 293 286 279 271 255 218 217 214 212 211 213 220 221 224 219 217 211 205 206 208 212 214 211 208 208 213 216 216 220
222 231 229 237 234 235 245 244 238 239 246 248 255 259 283 311 315 309 283 236 237 246 241 230 222 223 231 228 225 227 225 215 209 211 214 212 214 212 207 203 207 210 211 218
208 224 235 244 228 237 244 240 233 229 238 243 248 258 281 289 303 293 283 247 247 248 246 238 234 225 234 236 224 222 230 220 209 211 211 209 209 207 207 201 200 205 207 209
226 222 235 248 237 241 223 102 230 224 242 253 263 276 281 281 292 300 290 272 265 261 249 238 229 233 245 247 234 219 215 211 205 208 209 205 210 211 210 204 203 210 211 207
233 221 223 231 242 250 222 221 226 238 250 256 258 268 285 288 246 257 2 325 303 275 248 238 228 226 234 241 231 208 204 201 200 206 209 206 207 208 209 211 211 209 210 214
187 223 228 227 238 246 216 175 252 243 246 250 256 264 275 267 253 281 338 319 320 322 290 260 245 232 239 242 217 197 198 198 202 208 210 209 205 205 207 211 209 206 211 215
188 206 223 232 243 252 321 179 203 228 283 34 273 264 249 258 300 326 320 318 325 341 19 40 35 270 270 247 212 197 200 215 221 214 211 208 206 208 207 206 211 208 210 212
222 217 221 227 236 242 104 164 209 295 15 330 299 287 265 283 322 336 341 7 21 38 50 64 66 27 13 330 219 211 228 249 242 222 213 213 212 210 211 205 214 214 209 211
227 241 242 231 240 48 154 199 279 300 276 305 304 299 277 287 297 311 342 18 33 47 49 46 61 46 28 17 333 294 296 267 229 218 214 211 212 210 211 207 210 216 216 220
217 237 229 233 239 231 229 259 273 272 276 295 300 288 263 279 289 289 332 14 40 46 35 24 44 40 9 352 342 347 342 284 233 225 221 215 215 218 217 215 216 222 221 224
239 213 235 243 252 243 237 252 283 287 281 287 309 294 276 290 299 294 277 275 13 22 24 8 345 332 331 331 328 337 339 308 267 249 241 233 230 236 239 232 236 237 233 239
217 219 236 255 255 247 256 263 289 274 271 276 279 289 302 297 297 304 310 341 353 359 6 334 324 319 317 315 318 326 320 307 285 267 263 253 241 240 244 244 243 248 249 245
Height
1502 1502 1502 1502 1502 1503 1505 1508 1511 1512 1513 1515 1515 1514 1516 1520 1522 1523 1524 1525 1527 1528 1530 1530 1531 1531 1532 1532 1533 1533 1534 1534 1535 1536 1537 1538 1539 1540 1540 1540 1541 1541 1541 1541
1500 1501 1500 1502 1503 1505 1506 1509 1510 1512 1513 1514 1513 1513 1513 1516 1519 1520 1521 1523 1525 1527 1528 1529 1530 1530 1530 1531 1532 1533 1533 1534 1535 1536 1537 1538 1539 1540 1540 1540 1541 1541 1541 1541
1497 1499 1501 1503 1504 1506 1506 1508 1508 1511 1513 1513 1513 1512 1511 1513 1516 1519 1520 1522 1523 1524 1526 1527 1528 1529 1529 1530 1531 1532 1533 1534 1534 1535 1536 1538 1539 1539 1540 1540 1540 1541 1541 1542
1497 1499 1501 1502 1503 1504 1506 1505 1508 1510 1512 1512 1513 1515 1507 1507 1512 1515 1517 1519 1520 1522 1524 1525 1526 1527 1528 1529 1530 1531 1532 1533 1534 1535 1535 1537 1538 1539 1540 1540 1540 1541 1541 1541
1497 1498 1500 1501 1502 1503 1504 1506 1507 1509 1509 1511 1510 1512 1506 1506 1508 1509 1512 1515 1517 1520 1522 1523 1524 1525 1527 1527 1528 1529 1531 1532 1533 1534 1534 1536 1537 1538 1539 1539 1540 1541 1541 1541
1496 1498 1499 1499 1502 1503 1505 1507 1507 1508 1508 1515 1508 1511 1508 1502 1504 1505 1508 1512 1514 1517 1519 1521 1523 1524 1525 1526 1526 1528 1529 1530 1531 1532 1533 1535 1536 1537 1538 1538 1539 1540 1540 1540
1497 1497 1498 1500 1501 1504 1503 1506 1512 1514 1514 1510 1506 1510 1506 1501 1503 1505 1506 1509 1512 1514 1516 1518 1520 1521 1522 1523 1524 1526 1527 1528 1529 1531 1532 1533 1534 1535 1536 1537 1538 1538 1539 1539
1497 1499 1496 1498 1498 1499 1500 1502 1510 1516 1514 1507 1507 1507 1501 1502 1504 1505 1506 1508 1510 1512 1514 1516 1517 1518 1520 1521 1522 1524 1525 1527 1528 1529 1530 1532 1533 1534 1535 1535 1536 1537 1537 1538
1493 1496 1496 1497 1498 1497 1499 1500 1499 1503 1505 1509 1503 1501 1499 1501 1503 1504 1506 1507 1508 1510 1512 1514 1515 1517 1518 1519 1520 1522 1524 1525 1526 1528 1529 1530 1531 1532 1533 1533 1534 1535 1535 1536
1491 1495 1494 1497 1498 1499 1497 1497 1501 1504 1512 1512 1504 1502 1499 1498 1500 1502 1504 1506 1507 1509 1510 1512 1513 1514 1516 1517 1518 1520 1522 1523 1524 1526 1527 1528 1529 1529 1530 1531 1532 1533 1534 1534
1492 1493 1495 1496 1496 1495 1499 1500 1499 1500 1501 1507 1508 1502 1495 1497 1499 1501 1503 1505 1506 1507 1508 1510 1511 1512 1514 1515 1517 1518 1519 1521 1522 1523 1524 1525 1526 1527 1528 1529 1529 1530 1531 1532
1492 1490 1492 1492 1493 1495 1494 1494 1496 1502 1502 1502 1503 1502 1496 1499 1500 1501 1502 1504 1505 1506 1506 1507 1508 1510 1511 1513 1514 1516 1517 1518 1519 1520 1521 1523 1524 1524 1525 1526 1527 1528 1529 1530
1493 1492 1495 1495 1497 1496 1494 1494 1495 1495 1496 1499 1502 1500 1495 1498 1499 1501 1502 1503 1503 1504 1505 1505 1506 1508 1509 1510 1511 1513 1514 1515 1517 1518 1519 1520 1521 1522 1523 1524 1525 1526 1527 1527
1493 1489 1491 1493 1489 1490 1493 1495 1496 1496 1496 1495 1494 1493 1493 1496 1498 1500 1501 1502 1502 1503 1503 1504 1504 1505 1506 1507 1509 1510 1511 1512 1514 1515 1516 1517 1518 1519 1520 1521 1522 1523 1524 1524
1491 1488 1487 1487 1488 1491 1492 1493 1494 1493 1490 1492 1490 1491 1492 1494 1497 1499 1500 1500 1501 1501 1502 1502 1503 1503 1504 1505 1506 1507 1508 1509 1510 1512 1513 1514 1515 1516 1517 1518 1519 1519 1520 1521
1490 1489 1488 1490 1490 1491 1493 1492 1491 1491 1490 1490 1491 1492 1493 1496 1497 1498 1498 1499 1499 1500 1500 1501 1501 1502 1502 1503 1503 1504 1505 1506 1507 1508 1510 1511 1511 1512 1513 1514 1515 1516 1516 1517
1489 1489 1490 1488 1489 1491 1491 1489 1489 1490 1491 1490 1490 1492 1494 1496 1497 1497 1497 1498 1498 1498 1498 1499 1499 1499 1500 1500 1500 1501 1501 1502 1503 1505 1506 1507 1508 1509 1510 1511 1511 1512 1513 1514
1490 1489 1488 1488 1491 1496 1489 1489 1489 1490 1492 1492 1492 1493 1494 1496 1496 1497 1497 1497 1497 1497 1497 1497 1497 1497 1498 1498 1498 1498 1499 1499 1500 1501 1502 1504 1505 1506 1506 1507 1508 1509 1509 1510
1491 1489 1489 1489 1489 1486 1488 1490 1491 1491 1490 1492 1492 1493 1494 1494 1494 1494 1495 1496 1496 1496 1495 1495 1495 1495 1496 1495 1495 1495 1496 1496 1497 1498 1499 1500 1501 1502 1503 1504 1505 1505 1506 1506
1492 1489 1488 1489 1491 1488 1488 1490 1492 1493 1489 1491 1492 1492 1493 1492 1489 1491 1494 1494 1494 1494 1493 1493 1493 1493 1493 1493 1493 1493 1493 1494 1494 1495 1496 1497 1498 1499 1500 1501 1501 1502 1502 1503
1489 1490 1489 1488 1488 1483 1489 1491 1492 1493 1489 1492 1492 1492 1493 1492 1492 1493 1492 1492 1492 1492 1491 1491 1491 1491 1491 1491 1491 1491 1491 1491 1492 1492 1493 1494 1495 1496 1497 1497 1498 1498 1499 1499
1485 1487 1488 1486 1487 1488 1490 1491 1491 1490 1491 1492 1492 1492 1492 1492 1492 1491 1491 1490 1490 1490 1490 1489 1489 1489 1489 1489 1489 1488 1488 1488 1489 1489 1490 1491 1492 1492 1493 1494 1494 1495 1496 1496
1486 1486 1485 1486 1488 1489 1490 1491 1491 1492 1492 1492 1492 1492 1492 1491 1491 1490 1490 1489 1489 1489 1488 1488 1488 1488 1487 1487 1486 1486 1485 1485 1486 1486 1487 1488 1489 1489 1490 1490 1491 1492 1492 1492
1487 1489 1488 1487 1487 1489 1491 1491 1491 1491 1491 1491 1491 1490 1490 1490 1489 1489 1488 1488 1488 1488 1487 1487 1487 1486 1486 1486 1485 1484 1483 1483 1483 1484 1484 1485 1485 1486 1486 1487 1488 1488 1488 1489
1487 1488 1486 1485 1486 1488 1489 1490 1490 1490 1490 1490 1489 1489 1489 1489 1488 1488 1487 1487 1487 1486 1486 1486 1486 1485 1485 1484 1484 1483 1482 1481 1481 1482 1481 1481 1482 1482 1483 1483 1484 1484 1485 1485
1487 1487 1485 1483 1485 1486 1487 1488 1488 1488 1488 1488 1488 1488 1488 1487 1487 1486 1486 1486 1485 1485 1485 1485 1485 1484 1483 1483 1482 1481 1480 1480 1480 1479 1479 1478 1478 1478 1479 1480 1480 1481 1481 1481